Asturias, Spain

2:28 AM CEST on October 22, 2017 (GMT +0200)
Asturias

Weather History for LEAS - March, 2013

Change the Weather History Date:

Monday, March 4, 2013

  Actual Average Record
Temperature  
Mean Temperature 55 °F -  
Max Temperature 64 °F 57 °F 69 °F (1998)
Min Temperature 46 °F 45 °F 33 °F (2005)
Degree Days  
Heating Degree Days 10    
Growing Degree Days 5 (Base 50)    
Moisture  
Dew Point 38 °F    
Average Humidity 47    
Maximum Humidity 71    
Minimum Humidity 34    
Precipitation  
Precipitation 0.00 in - - ()
Sea Level Pressure  
Sea Level Pressure 29.43 in    
Wind  
Wind Speed 7 mph ()    
Max Wind Speed 15 mph    
Max Gust Speed 29 mph    
Visibility 6.2 miles    
Events      
Averages and records for this station are not official NWS values.
T = Trace of Precipitation, MM = Missing Value Source: Averaged Metar Reports

Daily Weather History Graph

Daily Weather History Graph

Search for Another Location

Airport or City:

Trip Planner

Search our weather history database for the weather conditions in past years. The results will help you decide how hot, cold, wet, or windy it might be!

Date:

Astronomy

Mar. 04, 2013 Rise Set
Actual Time 7:55 AM CET 7:16 PM CET
Civil Twilight 7:26 AM CET 7:45 PM CET
Nautical Twilight 6:53 AM CET 8:18 PM CET
Astronomical Twilight 6:20 AM CET 8:51 PM CET
Moon 1:57 AM CET (3/4) 11:38 AM CET (3/4)
Length of Visible Light 12h 18m
Length of Day
11h 21m
Waning Gibbous, 55% of the Moon is Illuminated
Mar 4
Waning Gibbous
Mar 4
Last Quarter
Mar 11
New
Mar 19
First Quarter
Mar 27
Full

Hourly Weather History & Observations

Time (CET) Temp. Windchill Dew Point Humidity Pressure Visibility Wind Dir Wind Speed Gust Speed Precip Events Conditions
6:00 AM 50.0 °F - 35.6 °F 58% 29.59 in 6.2 mi South 3.5 mph - N/A   Partly Cloudy
6:30 AM 53.6 °F - 33.8 °F 47% 29.59 in 6.2 mi SSE 5.8 mph - N/A   Partly Cloudy
7:00 AM 48.2 °F - 37.4 °F 66% 29.56 in 6.2 mi SW 4.6 mph - N/A   Partly Cloudy
7:30 AM 46.4 °F 45.2 °F 37.4 °F 71% 29.56 in 6.2 mi South 3.5 mph - N/A   Partly Cloudy
8:00 AM 50.0 °F - 35.6 °F 58% 29.56 in 6.2 mi Variable 2.3 mph - N/A   Scattered Clouds
8:30 AM 48.2 °F - 37.4 °F 66% 29.56 in 6.2 mi Variable 2.3 mph - N/A   Partly Cloudy
9:30 AM 51.8 °F - 39.2 °F 62% 29.53 in 6.2 mi South 3.5 mph - N/A   Partly Cloudy
10:00 AM 57.2 °F - 37.4 °F 48% 29.53 in 6.2 mi South 8.1 mph - N/A   Partly Cloudy
10:30 AM 57.2 °F - 41.0 °F 55% 29.53 in 6.2 mi East 3.5 mph - N/A   Partly Cloudy
11:00 AM 59.0 °F - 37.4 °F 45% 29.50 in 6.2 mi SE 5.8 mph - N/A   Partly Cloudy
11:30 AM 60.8 °F - 41.0 °F 48% 29.50 in 6.2 mi Variable 1.2 mph - N/A   Partly Cloudy
12:00 PM 60.8 °F - 37.4 °F 42% 29.47 in 6.2 mi SSE 9.2 mph - N/A   Partly Cloudy
12:30 PM 60.8 °F - 39.2 °F 45% 29.47 in 6.2 mi SE 13.8 mph - N/A   Partly Cloudy
1:00 PM 64.4 °F - 35.6 °F 34% 29.47 in 6.2 mi SSE 12.7 mph - N/A   Partly Cloudy
1:30 PM 64.4 °F - 37.4 °F 37% 29.44 in 6.2 mi SSE 11.5 mph - N/A   Partly Cloudy
2:00 PM 62.6 °F - 35.6 °F 37% 29.44 in 6.2 mi SSE 8.1 mph - N/A   Partly Cloudy
2:30 PM 64.4 °F - 35.6 °F 34% 29.42 in 6.2 mi SSE 10.4 mph - N/A   Partly Cloudy
3:00 PM 64.4 °F - 35.6 °F 34% 29.42 in 6.2 mi SE 10.4 mph - N/A   Partly Cloudy
3:30 PM 64.4 °F - 35.6 °F 34% 29.39 in 6.2 mi SE 13.8 mph - N/A   Partly Cloudy
4:00 PM 62.6 °F - 33.8 °F 34% 29.39 in 6.2 mi SSE 13.8 mph - N/A   Partly Cloudy
4:30 PM 62.6 °F - 35.6 °F 37% 29.36 in 6.2 mi SSE 12.7 mph - N/A   Partly Cloudy
5:00 PM 60.8 °F - 37.4 °F 42% 29.36 in 6.2 mi SE 11.5 mph - N/A   Partly Cloudy
5:30 PM 60.8 °F - 37.4 °F 42% 29.36 in 6.2 mi ESE 12.7 mph - N/A   Partly Cloudy
6:00 PM 59.0 °F - 37.4 °F 45% 29.36 in 6.2 mi ESE 11.5 mph - N/A   Partly Cloudy
6:30 PM 59.0 °F - 37.4 °F 45% 29.36 in 6.2 mi East 9.2 mph - N/A   Partly Cloudy
7:00 PM 57.2 °F - 39.2 °F 51% 29.33 in 6.2 mi East 8.1 mph - N/A   Partly Cloudy
7:30 PM 57.2 °F - 41.0 °F 55% 29.33 in 6.2 mi East 5.8 mph - N/A   Partly Cloudy
8:00 PM 55.4 °F - 41.0 °F 58% 29.33 in 6.2 mi ESE 6.9 mph - N/A   Partly Cloudy
8:30 PM 55.4 °F - 39.2 °F 54% 29.33 in 6.2 mi ESE 9.2 mph - N/A   Partly Cloudy
9:00 PM 57.2 °F - 39.2 °F 51% 29.33 in 6.2 mi ESE 11.5 mph - N/A   Partly Cloudy
9:30 PM 59.0 °F - 37.4 °F 45% 29.33 in 6.2 mi SE 10.4 mph - N/A   Scattered Clouds
10:00 PM 59.0 °F - 39.2 °F 48% 29.33 in 6.2 mi SE 10.4 mph - N/A   Scattered Clouds
10:30 PM 62.6 °F - 37.4 °F 39% 29.33 in 6.2 mi SSE 15.0 mph - N/A   Scattered Clouds
11:00 PM 60.8 °F - 37.4 °F 42% 29.33 in 6.2 mi SSE 15.0 mph 28.8 mph N/A   Scattered Clouds
11:30 PM 60.8 °F - 37.4 °F 42% 29.33 in 6.2 mi SSE 15.0 mph 26.5 mph N/A   Scattered Clouds